RH
40 43 49 58 50 48 52 50 52 59 52 49 51 49 48 54 56 54 50 44 41 40 44 35 37 40 41 39 34 34 30 30 30 24 26 27 24 28 32 26 26 30 29
58 42 41 48 57 56 47 46 53 58 58 58 54 53 56 58 63 68 72 74 72 63 48 46 52 58 53 40 32 29 28 27 27 26 24 21 18 18 22 24 20 37 31
48 46 43 42 45 51 52 49 51 59 65 65 65 65 66 64 74 81 83 86 88 94 88 86 88 65 45 33 30 30 29 28 26 24 22 20 16 15 20 30 25 42 48
47 49 48 39 38 41 47 52 52 55 60 69 69 75 76 76 84 88 88 88 83 82 84 84 84 69 44 34 31 30 29 27 25 22 19 16 16 18 29 27 23 31 31
53 46 47 46 35 36 34 41 47 52 55 60 67 78 81 80 84 86 88 86 86 87 87 95 89 79 57 36 33 30 28 25 22 18 15 15 16 19 37 26 25 26 32
27 44 52 57 55 48 42 43 47 49 50 59 71 79 84 85 79 81 82 79 79 81 86 92 86 58 53 36 33 32 24 20 16 15 15 16 18 20 23 24 27 32 29
52 30 32 44 56 61 58 46 58 56 55 64 69 76 82 81 86 88 86 82 81 71 61 50 46 43 40 40 38 34 29 23 18 17 18 21 23 24 25 24 24 40 35
58 60 35 33 36 51 69 76 57 57 54 63 80 80 87 90 89 83 61 58 54 54 53 48 46 43 49 42 40 38 30 26 22 20 21 23 23 23 25 28 32 51 38
51 57 58 51 55 59 67 77 78 76 68 68 86 84 81 70 75 70 64 64 61 57 62 67 72 55 48 46 43 38 34 28 23 22 21 22 22 23 23 26 26 38 40
38 51 61 63 54 51 55 74 91 80 82 88 83 73 63 65 66 66 67 68 70 72 78 78 71 50 48 47 44 35 30 27 24 23 23 22 22 22 23 26 32 33 31
35 35 48 57 57 43 42 54 87 75 74 73 73 72 78 81 81 81 87 89 86 82 76 58 55 51 42 41 38 31 28 25 25 24 23 23 22 23 29 31 26 25 28
32 35 36 36 37 39 46 56 82 86 87 87 84 92 98 99 98 94 89 91 84 76 63 61 55 47 42 38 34 31 28 26 25 24 25 25 25 28 28 23 20 21 20
44 42 40 39 38 37 39 47 49 51 75 70 90 100 100 98 96 83 98 95 88 84 77 70 57 44 39 34 29 28 30 28 28 29 28 29 32 28 20 20 19 22 33
43 45 44 41 36 37 42 36 35 44 47 63 80 83 77 84 93 82 74 72 72 70 63 53 45 38 36 35 34 33 36 36 38 37 36 35 27 21 21 22 23 34 44
61 51 43 43 44 39 33 40 37 43 48 55 72 65 58 69 76 74 74 73 68 57 46 42 41 42 42 42 45 45 46 45 46 44 38 30 32 33 32 32 37 48 48
63 63 53 43 43 43 37 34 40 40 42 47 52 58 73 80 80 77 65 54 52 51 47 44 49 52 53 51 50 49 48 50 47 39 36 45 42 39 41 42 51 47 9
55 57 54 46 45 40 35 41 46 44 46 54 60 67 72 65 57 58 59 56 52 53 58 61 59 58 56 54 52 50 47 46 42 44 52 55 52 50 51 58 44 9 15
39 38 37 34 34 29 28 53 54 51 50 54 56 58 58 61 58 54 53 62 67 70 68 63 62 62 59 58 57 51 46 49 53 58 59 58 58 60 62 35 9 17 20
32 29 29 28 27 27 52 60 61 61 62 63 63 62 63 59 57 60 61 64 68 69 67 62 60 60 61 64 65 52 52 60 62 62 64 66 69 68 20 10 17 20 20
45 38 36 28 27 31 61 60 67 70 71 73 70 67 64 62 61 60 58 54 56 71 66 63 62 64 69 74 73 56 60 66 68 74 77 63 39 9 10 16 18 20 20
40 39 42 37 32 42 61 62 68 74 80 83 74 70 67 66 64 64 65 67 75 70 66 68 71 72 76 81 79 66 73 74 78 83 62 12 5 10 13 17 19 20 24
43 44 46 45 39 52 64 62 65 74 84 84 74 70 70 73 78 83 85 80 73 69 66 70 74 72 79 85 86 78 82 87 84 81 36 6 7 11 15 18 19 22 28
51 47 51 48 45 51 64 68 75 87 86 76 72 74 77 83 86 86 91 80 74 71 70 76 78 74 77 96 89 88 90 94 96 64 15 20 9 13 16 18 20 25 30
73 66 57 55 56 61 72 86 91 84 75 75 75 75 80 85 93 93 95 90 78 71 69 78 80 75 91 92 93 95 96 88 89 53 37 14 10 14 16 18 20 23 26
83 80 76 70 67 73 85 97 92 84 80 78 77 81 86 88 99 94 92 91 89 76 71 78 84 86 90 91 96 97 72 34 16 10 7 8 11 13 15 16 18 20 22
98 99 92 86 86 84 85 86 86 84 83 82 82 89 92 98 100 93 93 91 96 90 78 78 80 85 89 93 87 68 48 39 15 8 9 10 11 12 13 14 16 18 19
Wind_Speed
28 27 23 24 29 31 29 27 26 27 31 31 31 31 32 31 32 31 30 28 26 25 23 22 19 19 20 20 21 22 23 23 24 26 27 27 28 28 28 29 28 29 26
28 32 29 26 26 28 31 30 28 28 29 29 30 30 30 30 27 26 24 24 21 19 20 19 18 20 22 23 24 24 26 27 27 29 31 32 30 28 29 29 27 26 26
31 35 34 32 28 28 29 31 30 29 30 30 31 30 28 27 27 26 22 21 21 20 20 19 20 21 24 25 26 27 28 29 29 30 33 35 34 31 30 30 29 27 26
33 36 35 36 36 32 30 29 30 29 31 32 33 30 27 26 24 27 27 30 31 33 33 33 25 19 24 28 28 29 30 31 31 32 33 34 33 32 31 30 30 28 27
33 36 37 35 34 31 31 33 34 33 34 32 35 36 32 28 29 29 29 34 32 30 34 39 31 25 31 31 30 31 32 32 33 33 32 31 31 30 31 32 29 28 30
27 35 39 39 36 37 35 33 34 37 36 36 35 38 37 34 35 32 30 28 28 27 29 33 29 29 32 32 32 32 32 32 31 31 30 30 30 29 31 32 28 28 33
13 25 38 38 44 39 36 36 37 36 38 38 39 39 41 39 36 35 33 31 28 28 30 27 27 28 29 31 32 33 32 31 31 31 31 31 31 31 31 31 31 31 34
23 21 24 29 33 39 37 35 39 41 40 38 40 39 38 37 38 28 26 24 26 28 28 27 26 27 31 33 37 35 34 33 33 32 32 32 32 32 32 32 32 31 32
20 25 26 26 26 31 37 38 39 41 40 36 40 40 37 30 26 28 26 25 25 28 29 29 30 36 38 39 39 38 37 35 35 34 33 33 33 33 32 32 33 33 33
18 27 28 30 26 21 25 32 32 31 33 38 38 34 31 32 31 29 28 27 27 29 32 35 36 37 39 39 39 39 38 36 36 35 34 34 33 33 32 32 32 30 30
19 19 24 29 28 25 25 26 34 36 32 38 40 33 30 33 34 34 32 32 36 36 29 35 38 40 40 40 39 37 36 35 35 34 35 34 33 33 31 30 29 27 26
14 16 17 21 25 22 20 24 24 38 37 39 46 46 27 30 34 40 43 31 28 31 34 38 41 41 40 38 37 36 35 35 34 34 34 34 32 30 30 27 26 24 22
7 8 10 11 14 17 18 22 25 26 31 33 41 37 35 31 25 29 35 30 26 30 37 42 45 44 38 35 35 34 34 35 34 33 32 31 30 29 27 25 23 22 21
19 19 15 12 8 9 12 17 24 27 27 27 24 24 20 21 29 31 30 30 32 35 37 37 36 36 35 34 34 34 33 33 32 31 30 28 27 27 24 24 22 21 19
21 25 25 24 22 18 15 15 15 21 25 28 32 32 29 25 25 28 30 32 33 33 33 33 34 33 34 34 33 32 31 30 29 28 28 26 23 22 22 21 20 19 17
27 31 32 26 28 27 23 21 17 17 21 23 24 23 21 21 24 26 26 26 28 29 30 32 32 32 31 31 30 31 30 29 27 26 25 23 23 22 21 20 19 18 16
29 32 33 31 27 27 29 23 21 19 18 17 17 17 18 20 21 22 23 24 27 29 30 30 30 30 30 29 28 28 28 27 25 23 24 22 21 20 19 19 17 16 15
27 27 27 27 27 25 24 22 23 20 18 17 16 17 18 19 19 21 23 25 27 28 29 29 29 29 30 29 27 26 26 24 24 22 21 20 19 18 17 18 17 16 14
23 22 24 25 24 23 19 22 23 22 19 17 15 16 17 19 20 22 23 25 26 28 28 28 28 28 29 27 26 24 24 22 21 20 19 18 19 18 19 17 16 15 13
20 21 22 23 24 21 16 21 23 23 20 18 16 18 19 20 21 24 26 28 28 29 29 28 28 28 26 24 24 22 22 20 19 18 17 17 17 17 17 16 15 14 14
19 20 19 21 19 20 16 15 22 25 22 21 20 19 20 21 23 27 28 28 27 26 27 27 27 26 24 22 22 20 19 18 17 17 17 17 17 17 15 15 15 15 14
16 16 17 17 18 19 16 13 15 19 22 21 19 19 20 22 24 25 25 25 24 24 24 25 25 23 21 22 21 19 18 18 17 18 17 17 16 16 17 17 16 16 15
8 10 12 15 15 17 14 13 14 16 18 19 19 19 20 22 24 24 23 22 22 23 23 22 22 22 20 19 19 18 18 18 19 18 17 18 18 18 18 17 17 16 15
4 3 4 5 9 12 13 15 17 18 19 19 20 21 22 23 24 25 23 21 22 22 21 20 18 19 18 17 18 18 19 19 21 19 16 18 18 18 18 18 17 17 17
3 2 2 5 8 11 14 16 18 19 21 22 23 24 24 25 26 22 21 21 21 20 20 18 16 15 16 17 16 16 15 15 17 17 19 18 19 19 19 19 19 20 20
2 3 4 5 6 8 12 16 19 21 23 25 27 27 25 26 25 21 20 20 19 19 18 15 13 11 13 12 14 15 16 17 19 18 18 19 20 20 21 21 22 22 23
Wind_Direction
232 219 216 226 227 230 234 237 241 240 243 247 249 251 254 251 251 255 256 256 254 243 235 240 250 265 278 287 291 293 294 296 297 299 299 300 301 303 301 301 301 304 310
235 238 227 223 232 238 239 240 244 249 252 251 251 250 252 255 254 253 255 250 244 237 239 247 260 272 279 284 288 290 294 297 298 299 301 302 304 300 297 296 299 298 306
229 236 238 237 232 237 242 245 248 251 254 252 251 251 246 244 235 235 232 229 232 234 238 250 262 275 281 284 287 289 291 292 295 297 297 299 302 302 300 301 302 297 298
227 227 231 238 239 239 245 250 252 252 255 255 253 250 245 242 237 232 232 239 245 251 253 249 246 263 287 285 286 288 289 291 293 293 293 294 295 295 293 292 290 289 290
220 231 234 237 244 247 247 249 250 252 253 258 256 249 244 240 239 241 244 243 247 253 259 266 263 268 284 286 286 287 287 288 289 289 290 289 290 289 288 289 292 294 289
232 222 231 235 237 238 242 246 248 250 252 253 251 248 245 242 245 247 247 246 251 260 264 267 267 267 277 280 283 284 285 285 286 285 286 285 284 283 284 288 290 287 292
238 223 226 235 237 242 240 245 250 252 250 250 249 248 246 245 244 243 248 252 255 266 267 267 268 271 276 280 284 284 284 285 285 285 284 282 282 282 281 282 284 285 293
228 234 234 239 239 243 246 242 254 259 260 251 250 245 237 236 240 240 235 235 248 267 265 263 268 277 280 282 281 284 285 285 284 282 281 280 280 280 281 281 281 275 283
237 232 242 245 245 246 251 257 259 260 261 254 246 241 242 244 241 247 255 257 254 253 266 274 277 282 282 278 282 283 282 283 282 281 280 280 280 280 280 280 281 278 280
239 237 235 246 252 257 246 250 250 246 239 236 234 234 232 232 237 243 248 249 250 256 262 267 278 278 280 283 284 284 284 284 282 281 280 279 279 280 279 278 277 276 276
231 235 237 245 249 253 247 244 238 236 238 232 231 223 239 239 242 248 252 258 265 271 276 273 281 285 288 287 285 284 284 285 284 282 280 279 279 278 277 274 272 271 270
234 232 231 238 245 247 251 245 243 238 245 258 259 248 234 242 248 254 259 260 271 267 277 284 287 287 284 283 283 283 283 282 281 280 279 278 277 275 273 271 270 268 268
229 228 232 234 246 251 250 248 250 248 247 255 255 250 239 237 264 279 273 259 264 268 272 271 274 281 281 281 282 281 281 280 280 279 277 276 275 273 270 267 265 264 263
257 244 238 238 262 277 268 262 255 251 253 251 245 257 257 267 263 263 264 268 269 271 273 273 275 276 278 279 280 281 280 281 280 278 276 273 269 268 264 261 258 257 255
272 264 248 247 265 279 294 276 257 243 245 247 247 251 253 253 254 257 262 267 269 270 273 276 278 279 280 281 280 279 279 279 279 277 274 271 267 263 260 256 253 249 240
263 270 271 265 262 269 289 276 264 254 246 244 244 247 249 252 255 260 264 267 272 276 279 281 282 283 282 282 282 281 281 277 274 272 268 264 261 257 252 247 242 231 219
258 263 269 274 271 270 276 268 243 240 243 243 245 247 252 256 260 264 268 274 278 281 283 284 283 282 281 282 282 282 280 277 270 267 264 261 255 249 244 238 218 219 225
270 268 263 259 262 268 267 247 232 230 232 238 244 251 256 260 265 273 277 280 283 285 286 286 285 283 283 284 284 282 278 274 270 264 258 252 246 237 230 220 216 220 229
261 260 259 261 259 259 257 235 226 231 236 241 247 253 254 261 271 275 279 283 286 287 287 288 287 285 282 280 277 276 273 269 266 260 253 246 239 226 215 215 220 227 236
263 256 256 254 253 250 245 234 231 235 238 243 247 249 257 269 276 280 284 286 288 288 289 288 287 284 280 277 273 270 267 263 258 251 242 233 225 220 217 220 229 237 245
270 264 261 254 248 240 241 238 233 235 239 238 241 249 260 270 279 284 286 287 285 287 289 288 286 280 276 271 264 260 257 254 251 241 234 232 226 221 222 229 238 244 248
273 264 258 249 241 235 241 247 237 226 224 232 241 253 267 278 286 291 290 287 286 289 290 289 285 278 273 266 258 254 250 247 241 240 233 228 226 225 227 234 241 246 250
277 263 254 241 233 223 234 234 225 215 223 235 245 259 273 284 288 290 293 291 292 294 296 292 287 280 272 260 254 251 246 235 235 229 226 225 228 231 235 241 246 251 257
296 285 254 230 215 219 222 218 219 226 234 242 256 268 275 283 294 288 287 294 294 296 296 292 284 279 267 256 251 245 238 234 227 218 225 236 236 240 245 249 253 256 259
280 278 259 226 221 221 222 224 230 237 245 255 262 267 273 283 287 289 291 294 291 293 294 290 283 276 264 254 249 242 233 232 240 236 237 241 244 247 250 253 256 258 260
322 275 262 248 233 228 232 236 240 246 252 258 263 266 271 284 280 278 289 292 297 289 290 285 275 265 258 247 236 233 234 236 238 243 248 250 253 254 255 257 259 260 262